When you browse on this site, cookies collect data to enhance your experience and personalize the content and advertising you see.
Visit our Privacy Policy to learn more. By continuing to use the site, you agree to this use of cookies and data.
  • Em Portugal
  • Lista de países
  • Para 7 dias
  • Temperatura da água
  • Mapas de satélite
  • Mapa do tempo
  • Widgets de tempo
  • user-avatar
    Iniciar Sessão

    Previsão horária em Wierzbinek

    Hoje, 18 Abril, Quinta-feira

    Tempo Temperatura Precipitação Vento Pressão Humidade
    00:00 +9°C° 0 mm 2 m/s 763 mmHg 69%
    01:00 +8°C° 0 mm 2 m/s 763 mmHg 68%
    02:00 +8°C° 0 mm 2 m/s 763 mmHg 69%
    03:00 +8°C° 0 mm 2 m/s 764 mmHg 70%
    04:00 +7°C° 0 mm 2 m/s 764 mmHg 71%
    05:00 +8°C° 0 mm 2 m/s 764 mmHg 69%
    06:00 +9°C° 0 mm 2 m/s 764 mmHg 68%
    07:00 +12°C° 0 mm 2 m/s 765 mmHg 66%
    08:00 +14°C° 0 mm 2 m/s 765 mmHg 59%
    09:00 +16°C° 0 mm 3 m/s 765 mmHg 53%
    10:00 +18°C° 0 mm 3 m/s 765 mmHg 47%
    11:00 +18°C° 0 mm 3 m/s 765 mmHg 43%
    12:00 +19°C° 0 mm 3 m/s 765 mmHg 40%
    13:00 +20°C° 0 mm 3 m/s 765 mmHg 37%
    14:00 +20°C° 0 mm 3 m/s 765 mmHg 37%
    15:00 +20°C° 0 mm 3 m/s 764 mmHg 38%
    16:00 +20°C° 0 mm 3 m/s 764 mmHg 38%
    17:00 +18°C° 0 mm 2 m/s 764 mmHg 43%
    18:00 +16°C° 0 mm 2 m/s 765 mmHg 48%
    19:00 +14°C° 0 mm 1 m/s 765 mmHg 53%
    20:00 +13°C° 0 mm 2 m/s 765 mmHg 58%
    21:00 +12°C° 0 mm 3 m/s 765 mmHg 64%
    22:00 +11°C° 0 mm 3 m/s 766 mmHg 69%
    23:00 +10°C° 0 mm 3 m/s 766 mmHg 72%

    Amanhã, 19 Abril, Sexta-feira

    Tempo Temperatura Precipitação Vento Pressão Humidade
    00:00 +9°C° 0 mm 3 m/s 766 mmHg 74%
    01:00 +9°C° 0 mm 3 m/s 766 mmHg 77%
    02:00 +8°C° 0 mm 3 m/s 766 mmHg 77%
    03:00 +8°C° 0 mm 3 m/s 766 mmHg 77%
    04:00 +7°C° 0 mm 3 m/s 766 mmHg 77%
    05:00 +8°C° 0 mm 3 m/s 767 mmHg 73%
    06:00 +9°C° 0 mm 3 m/s 767 mmHg 70%
    07:00 +10°C° 0 mm 3 m/s 767 mmHg 66%
    08:00 +12°C° 0 mm 3 m/s 767 mmHg 59%
    09:00 +14°C° 0 mm 3 m/s 767 mmHg 53%
    10:00 +17°C° 0 mm 3 m/s 767 mmHg 46%
    11:00 +18°C° 0 mm 3 m/s 767 mmHg 42%
    12:00 +19°C° 0 mm 3 m/s 767 mmHg 37%
    13:00 +20°C° 0 mm 3 m/s 767 mmHg 32%
    14:00 +20°C° 0 mm 3 m/s 766 mmHg 33%
    15:00 +20°C° 0 mm 3 m/s 766 mmHg 33%
    16:00 +20°C° 0 mm 3 m/s 766 mmHg 33%
    17:00 +18°C° 0 mm 3 m/s 766 mmHg 40%
    18:00 +16°C° 0 mm 3 m/s 766 mmHg 46%
    19:00 +13°C° 0 mm 3 m/s 766 mmHg 53%
    20:00 +11°C° 0 mm 3 m/s 766 mmHg 59%
    21:00 +10°C° 0 mm 3 m/s 766 mmHg 65%
    22:00 +9°C° 0 mm 3 m/s 766 mmHg 71%
    23:00 +8°C° 0 mm 3 m/s 766 mmHg 70%

    Depois de amanhã, 20 Abril, Sábado

    Tempo Temperatura Precipitação Vento Pressão Humidade
    00:00 +7°C° 0 mm 3 m/s 766 mmHg 69%
    01:00 +5°C° 0 mm 3 m/s 766 mmHg 68%
    02:00 +5°C° 0 mm 3 m/s 766 mmHg 65%
    03:00 +5°C° 0 mm 2 m/s 766 mmHg 63%
    04:00 +4°C° 0 mm 2 m/s 765 mmHg 61%
    05:00 +5°C° 0 mm 2 m/s 765 mmHg 58%
    06:00 +5°C° 0 mm 3 m/s 765 mmHg 56%
    07:00 +7°C° 0 mm 3 m/s 765 mmHg 54%
    08:00 +9°C° 0 mm 3 m/s 765 mmHg 51%
    09:00 +11°C° 0 mm 3 m/s 765 mmHg 48%
    10:00 +13°C° 0 mm 3 m/s 765 mmHg 44%
    11:00 +15°C° 0 mm 4 m/s 765 mmHg 43%
    12:00 +17°C° 0 mm 4 m/s 764 mmHg 42%
    13:00 +18°C° 0 mm 4 m/s 764 mmHg 41%
    14:00 +18°C° 0 mm 4 m/s 764 mmHg 41%
    15:00 +18°C° 0 mm 4 m/s 763 mmHg 41%
    16:00 +18°C° 0 mm 4 m/s 763 mmHg 41%
    17:00 +15°C° 0 mm 4 m/s 763 mmHg 46%
    18:00 +13°C° 0 mm 4 m/s 763 mmHg 51%
    19:00 +11°C° 0 mm 3 m/s 763 mmHg 56%
    20:00 +10°C° 0 mm 3 m/s 763 mmHg 59%
    21:00 +9°C° 0 mm 3 m/s 763 mmHg 62%
    22:00 +7°C° 0 mm 3 m/s 763 mmHg 64%
    23:00 +7°C° 0 mm 3 m/s 763 mmHg 66%

    21 Abril, Domingo

    Tempo Temperatura Precipitação Vento Pressão Humidade
    00:00 +5°C° 0 mm 3 m/s 763 mmHg 67%
    01:00 +6°C° 0 mm 2 m/s 763 mmHg 69%
    02:00 +5°C° 0 mm 2 m/s 762 mmHg 69%
    03:00 +5°C° 0 mm 2 m/s 762 mmHg 70%
    04:00 +5°C° 0 mm 2 m/s 762 mmHg 70%
    05:00 +6°C° 0 mm 2 m/s 762 mmHg 66%
    06:00 +7°C° 0 mm 2 m/s 762 mmHg 63%
    07:00 +8°C° 0 mm 2 m/s 762 mmHg 59%
    08:00 +10°C° 0 mm 2 m/s 761 mmHg 53%
    09:00 +13°C° 0 mm 2 m/s 761 mmHg 48%
    10:00 +15°C° 0 mm 2 m/s 761 mmHg 42%
    11:00 +16°C° 0 mm 2 m/s 760 mmHg 40%
    12:00 +17°C° 0 mm 3 m/s 760 mmHg 37%
    13:00 +18°C° 0 mm 3 m/s 760 mmHg 35%
    14:00 +18°C° 0 mm 3 m/s 759 mmHg 35%
    15:00 +18°C° 0 mm 3 m/s 759 mmHg 35%
    16:00 +19°C° 0 mm 3 m/s 758 mmHg 36%
    17:00 +17°C° 0 mm 2 m/s 758 mmHg 41%
    18:00 +15°C° 0 mm 1 m/s 758 mmHg 46%
    19:00 +13°C° 0 mm 1 m/s 758 mmHg 51%
    20:00 +12°C° 0 mm 1 m/s 758 mmHg 54%
    21:00 +12°C° 0 mm 1 m/s 758 mmHg 58%
    22:00 +11°C° 0 mm 1 m/s 758 mmHg 61%
    23:00 +10°C° 0 mm 1 m/s 758 mmHg 63%

    22 Abril, Segunda-feira

    Tempo Temperatura Precipitação Vento Pressão Humidade
    00:00 +9°C° 0 mm 1 m/s 758 mmHg 65%
    01:00 +9°C° 0 mm 1 m/s 758 mmHg 67%
    02:00 +8°C° 0 mm 1 m/s 757 mmHg 69%
    03:00 +8°C° 0 mm 1 m/s 757 mmHg 71%
    04:00 +7°C° 0 mm 1 m/s 757 mmHg 73%
    05:00 +8°C° 0 mm 2 m/s 757 mmHg 70%
    06:00 +9°C° 0 mm 2 m/s 757 mmHg 67%
    07:00 +10°C° 0 mm 3 m/s 757 mmHg 65%
    08:00 +12°C° 0 mm 3 m/s 757 mmHg 60%
    09:00 +13°C° 0 mm 3 m/s 757 mmHg 56%
    10:00 +16°C° 0 mm 3 m/s 757 mmHg 51%
    11:00 +16°C° 0.1 mm 3 m/s 757 mmHg 49%
    12:00 +17°C° 0.1 mm 4 m/s 757 mmHg 47%
    13:00 +18°C° 0.1 mm 4 m/s 757 mmHg 45%
    14:00 +17°C° 0.1 mm 4 m/s 756 mmHg 47%
    15:00 +17°C° 0.1 mm 4 m/s 756 mmHg 49%
    16:00 +17°C° 0.1 mm 4 m/s 756 mmHg 51%
    17:00 +14°C° 0.1 mm 4 m/s 756 mmHg 59%
    18:00 +13°C° 0.1 mm 3 m/s 756 mmHg 67%
    19:00 +11°C° 0.1 mm 3 m/s 757 mmHg 75%
    20:00 +10°C° 0 mm 3 m/s 757 mmHg 77%
    21:00 +10°C° 0 mm 4 m/s 757 mmHg 79%
    22:00 +8°C° 0 mm 4 m/s 758 mmHg 82%
    23:00 +8°C° 0 mm 4 m/s 757 mmHg 81%

    23 Abril, Terça-feira

    Tempo Temperatura Precipitação Vento Pressão Humidade
    00:00 +8°C° 0 mm 5 m/s 757 mmHg 81%
    01:00 +8°C° 0 mm 5 m/s 757 mmHg 81%
    02:00 +7°C° 0 mm 6 m/s 757 mmHg 78%
    03:00 +7°C° 0 mm 6 m/s 757 mmHg 75%
    04:00 +7°C° 0 mm 6 m/s 757 mmHg 72%
    05:00 +6°C° 0 mm 7 m/s 757 mmHg 69%
    06:00 +7°C° 0 mm 8 m/s 757 mmHg 67%
    07:00 +7°C° 0 mm 9 m/s 757 mmHg 65%
    08:00 +10°C° 0 mm 9 m/s 757 mmHg 63%
    09:00 +12°C° 0 mm 8 m/s 756 mmHg 61%
    10:00 +13°C° 0 mm 8 m/s 756 mmHg 58%
    11:00 +13°C° 0.1 mm 8 m/s 756 mmHg 61%
    12:00 +13°C° 0.1 mm 8 m/s 755 mmHg 64%
    13:00 +12°C° 0.1 mm 8 m/s 755 mmHg 66%
    14:00 +13°C° 0 mm 9 m/s 755 mmHg 62%
    15:00 +15°C° 0 mm 9 m/s 754 mmHg 58%
    16:00 +17°C° 0 mm 9 m/s 754 mmHg 53%
    17:00 +16°C° 0 mm 9 m/s 754 mmHg 53%
    18:00 +15°C° 0 mm 9 m/s 754 mmHg 52%
    19:00 +15°C° 0 mm 9 m/s 754 mmHg 52%
    20:00 +13°C° 0 mm 8 m/s 754 mmHg 53%
    21:00 +12°C° 0 mm 8 m/s 754 mmHg 54%
    22:00 +11°C° 0 mm 7 m/s 754 mmHg 55%
    23:00 +11°C° 0 mm 7 m/s 754 mmHg 56%
    Mostrar mais